Time,TemperatureF,DewpointF,PressureIn,WindDirection,WindDirectionDegrees,WindSpeedMPH,WindSpeedGustMPH,Humidity,HourlyPrecipIn,Conditions,Clouds,dailyrainin,SolarRadiationWatts/m^2,SoftwareType,DateUTC
2013-07-28 00:02:00,59.0,57.0,-100.00,ESE,111,2.0,4.0,92,0.00,,,0.00,0.000000,,2013-07-28 04:02:00,
2013-07-28 00:12:00,59.0,57.0,-100.00,ESE,111,2.0,4.0,92,0.00,,,0.00,0.000000,,2013-07-28 04:12:00,
2013-07-28 00:22:00,59.0,57.0,-100.00,ESE,111,2.0,4.0,92,0.00,,,0.00,0.000000,,2013-07-28 04:22:00,
2013-07-28 00:53:00,57.0,56.0,-100.00,ESE,111,1.0,3.0,95,0.00,,,0.00,0.000000,,2013-07-28 04:53:00,
2013-07-28 01:02:00,57.0,56.0,-100.00,ESE,111,1.0,3.0,95,0.00,,,0.00,0.000000,,2013-07-28 05:02:00,
2013-07-28 01:12:00,57.0,56.0,-100.00,ESE,111,1.0,3.0,95,0.00,,,0.00,0.000000,,2013-07-28 05:12:00,
2013-07-28 01:22:00,57.0,56.0,-100.00,ESE,111,1.0,3.0,95,0.00,,,0.00,0.000000,,2013-07-28 05:22:00,
2013-07-28 01:53:00,56.0,55.0,-100.00,SE,124,1.0,2.0,98,0.00,,,-99.99,0.000000,,2013-07-28 05:53:00,
2013-07-28 02:02:00,56.0,55.0,-100.00,SE,124,1.0,2.0,98,0.00,,,-99.99,0.000000,,2013-07-28 06:02:00,
2013-07-28 02:12:00,56.0,55.0,-100.00,SE,124,1.0,2.0,98,0.00,,,-99.99,0.000000,,2013-07-28 06:12:00,
2013-07-28 02:22:00,56.0,55.0,-100.00,SE,124,1.0,2.0,98,0.00,,,-99.99,0.000000,,2013-07-28 06:22:00,
2013-07-28 02:53:00,55.0,55.0,-100.00,WSW,248,0.0,3.0,99,0.00,,,0.00,0.000000,,2013-07-28 06:53:00,
2013-07-28 03:02:00,55.0,55.0,-100.00,WSW,248,0.0,3.0,99,0.00,,,0.00,0.000000,,2013-07-28 07:02:00,
2013-07-28 03:12:00,55.0,55.0,-100.00,WSW,248,0.0,3.0,99,0.00,,,0.00,0.000000,,2013-07-28 07:12:00,
2013-07-28 03:23:00,55.0,55.0,-100.00,WSW,248,0.0,3.0,99,0.00,,,0.00,0.000000,,2013-07-28 07:23:00,
2013-07-28 03:53:00,57.0,57.0,-100.00,ESE,115,3.0,7.0,99,0.00,,,0.00,0.000000,,2013-07-28 07:53:00,
2013-07-28 04:02:00,57.0,57.0,-100.00,ESE,115,3.0,7.0,99,0.00,,,0.00,0.000000,,2013-07-28 08:02:00,
2013-07-28 04:12:00,57.0,57.0,-100.00,ESE,115,3.0,7.0,99,0.00,,,0.00,0.000000,,2013-07-28 08:12:00,
2013-07-28 04:23:00,57.0,57.0,-100.00,ESE,115,3.0,7.0,99,0.00,,,0.00,0.000000,,2013-07-28 08:23:00,
2013-07-28 04:53:00,58.0,57.0,-100.00,ESE,113,3.0,6.0,98,0.00,,,0.00,0.000000,,2013-07-28 08:53:00,
2013-07-28 05:02:00,58.0,57.0,-100.00,ESE,113,3.0,6.0,98,0.00,,,0.00,0.000000,,2013-07-28 09:02:00,
2013-07-28 05:12:00,58.0,57.0,-100.00,ESE,113,3.0,6.0,98,0.00,,,0.00,0.000000,,2013-07-28 09:12:00,
2013-07-28 05:22:00,58.0,57.0,-100.00,ESE,113,3.0,6.0,98,0.00,,,0.00,0.000000,,2013-07-28 09:22:00,
2013-07-28 05:53:00,56.0,55.0,-100.00,East,82,2.0,4.0,98,0.00,,,0.00,0.000000,,2013-07-28 09:53:00,
2013-07-28 06:02:00,56.0,55.0,-100.00,East,82,2.0,4.0,98,0.00,,,0.00,0.000000,,2013-07-28 10:02:00,
2013-07-28 06:12:00,56.0,55.0,-100.00,East,82,2.0,4.0,98,0.00,,,0.00,0.000000,,2013-07-28 10:12:00,
2013-07-28 06:22:00,56.0,55.0,-100.00,East,82,2.0,4.0,98,0.00,,,0.00,0.000000,,2013-07-28 10:22:00,
2013-07-28 06:53:00,56.0,55.0,-100.00,NNE,13,0.0,3.0,98,0.00,,,0.00,28.000000,,2013-07-28 10:53:00,
2013-07-28 07:02:00,56.0,55.0,-100.00,NNE,13,0.0,3.0,98,0.00,,,0.00,28.000000,,2013-07-28 11:02:00,
2013-07-28 07:12:00,56.0,55.0,-100.00,NNE,13,0.0,3.0,98,0.00,,,0.00,28.000000,,2013-07-28 11:12:00,
2013-07-28 07:22:00,56.0,55.0,-100.00,NNE,13,0.0,3.0,98,0.00,,,0.00,28.000000,,2013-07-28 11:22:00,
2013-07-28 07:54:00,58.0,57.0,-100.00,NNW,337,0.0,3.0,95,0.00,,,0.00,102.000000,,2013-07-28 11:54:00,
2013-07-28 08:03:00,58.0,57.0,-100.00,NNW,337,0.0,3.0,95,0.00,,,0.00,102.000000,,2013-07-28 12:03:00,
2013-07-28 08:13:00,58.0,57.0,-100.00,NNW,337,0.0,3.0,95,0.00,,,0.00,102.000000,,2013-07-28 12:13:00,
2013-07-28 08:22:00,58.0,57.0,-100.00,NNW,337,0.0,3.0,95,0.00,,,0.00,102.000000,,2013-07-28 12:22:00,
2013-07-28 08:53:00,65.0,60.0,-100.00,NW,312,2.0,6.0,85,0.00,,,0.00,209.000000,,2013-07-28 12:53:00,
2013-07-28 09:02:00,65.0,60.0,-100.00,NW,312,2.0,6.0,85,0.00,,,0.00,209.000000,,2013-07-28 13:02:00,
2013-07-28 09:12:00,65.0,60.0,-100.00,NW,312,2.0,6.0,85,0.00,,,0.00,209.000000,,2013-07-28 13:12:00,
2013-07-28 09:22:00,65.0,60.0,-100.00,NW,312,2.0,6.0,85,0.00,,,0.00,209.000000,,2013-07-28 13:22:00,
2013-07-28 09:53:00,68.0,61.0,-100.00,ESE,104,4.0,8.0,79,0.00,,,0.00,281.000000,,2013-07-28 13:53:00,
2013-07-28 10:02:00,68.0,61.0,-100.00,ESE,104,4.0,8.0,79,0.00,,,0.00,281.000000,,2013-07-28 14:02:00,
2013-07-28 10:12:00,68.0,61.0,-100.00,ESE,104,4.0,8.0,79,0.00,,,0.00,281.000000,,2013-07-28 14:12:00,
2013-07-28 10:23:00,68.0,61.0,-100.00,ESE,104,4.0,8.0,79,0.00,,,0.00,281.000000,,2013-07-28 14:23:00,
2013-07-28 10:53:00,75.0,62.0,-100.00,ESE,106,4.0,8.0,65,0.00,,,0.00,509.000000,,2013-07-28 14:53:00,
2013-07-28 11:03:00,75.0,62.0,-100.00,ESE,106,4.0,8.0,65,0.00,,,0.00,509.000000,,2013-07-28 15:03:00,
2013-07-28 11:13:00,75.0,62.0,-100.00,ESE,106,4.0,8.0,65,0.00,,,0.00,509.000000,,2013-07-28 15:13:00,
2013-07-28 11:23:00,75.0,62.0,-100.00,ESE,106,4.0,8.0,65,0.00,,,0.00,509.000000,,2013-07-28 15:23:00,
2013-07-28 11:53:00,74.0,60.0,-100.00,East,87,4.0,8.0,62,0.00,,,0.00,441.000000,,2013-07-28 15:53:00,
2013-07-28 12:03:00,74.0,60.0,-100.00,East,87,4.0,8.0,62,0.00,,,0.00,441.000000,,2013-07-28 16:03:00,
2013-07-28 12:12:00,74.0,60.0,-100.00,East,87,4.0,8.0,62,0.00,,,0.00,441.000000,,2013-07-28 16:12:00,
2013-07-28 12:22:00,74.0,60.0,-100.00,East,87,4.0,8.0,62,0.00,,,0.00,441.000000,,2013-07-28 16:22:00,
2013-07-28 12:53:00,77.0,59.0,-100.00,ESE,122,5.0,12.0,54,0.00,,,0.00,615.000000,,2013-07-28 16:53:00,
2013-07-28 13:02:00,77.0,59.0,-100.00,ESE,122,5.0,12.0,54,0.00,,,0.00,615.000000,,2013-07-28 17:02:00,
2013-07-28 13:13:00,77.0,59.0,-100.00,ESE,122,5.0,12.0,54,0.00,,,0.00,615.000000,,2013-07-28 17:13:00,
2013-07-28 13:23:00,77.0,59.0,-100.00,ESE,122,5.0,12.0,54,0.00,,,0.00,615.000000,,2013-07-28 17:23:00,
2013-07-28 13:53:00,80.0,61.0,-100.00,SE,137,3.0,9.0,52,0.00,,,0.00,736.000000,,2013-07-28 17:53:00,
2013-07-28 14:03:00,80.0,61.0,-100.00,SE,137,3.0,9.0,52,0.00,,,0.00,736.000000,,2013-07-28 18:03:00,
2013-07-28 14:13:00,80.0,61.0,-100.00,SE,137,3.0,9.0,52,0.00,,,0.00,736.000000,,2013-07-28 18:13:00,
2013-07-28 14:23:00,80.0,61.0,-100.00,SE,137,3.0,9.0,52,0.00,,,0.00,736.000000,,2013-07-28 18:23:00,
2013-07-28 14:52:00,79.0,62.0,-100.00,ESE,120,4.0,9.0,56,0.00,,,0.00,618.000000,,2013-07-28 18:52:00,
2013-07-28 15:03:00,79.0,62.0,-100.00,ESE,120,4.0,9.0,56,0.00,,,0.00,618.000000,,2013-07-28 19:03:00,
2013-07-28 15:13:00,79.0,62.0,-100.00,ESE,120,4.0,9.0,56,0.00,,,0.00,618.000000,,2013-07-28 19:13:00,
2013-07-28 15:23:00,79.0,62.0,-100.00,ESE,120,4.0,9.0,56,0.00,,,0.00,618.000000,,2013-07-28 19:23:00,
2013-07-28 15:53:00,80.0,62.0,-100.00,ESE,116,4.0,11.0,55,0.00,,,0.00,610.000000,,2013-07-28 19:53:00,
2013-07-28 16:03:00,80.0,62.0,-100.00,ESE,116,4.0,11.0,55,0.00,,,0.00,610.000000,,2013-07-28 20:03:00,
2013-07-28 16:13:00,80.0,62.0,-100.00,ESE,116,4.0,11.0,55,0.00,,,0.00,610.000000,,2013-07-28 20:13:00,
2013-07-28 16:23:00,80.0,62.0,-100.00,ESE,116,4.0,11.0,55,0.00,,,0.00,610.000000,,2013-07-28 20:23:00,
2013-07-28 16:53:00,79.0,63.0,-100.00,SSE,157,2.0,8.0,59,0.00,,,0.00,479.000000,,2013-07-28 20:53:00,
2013-07-28 17:03:00,79.0,63.0,-100.00,SSE,157,2.0,8.0,59,0.00,,,0.00,479.000000,,2013-07-28 21:03:00,
2013-07-28 17:13:00,79.0,63.0,-100.00,SSE,157,2.0,8.0,59,0.00,,,0.00,479.000000,,2013-07-28 21:13:00,
2013-07-28 17:23:00,79.0,63.0,-100.00,SSE,157,2.0,8.0,59,0.00,,,0.00,479.000000,,2013-07-28 21:23:00,
2013-07-28 17:52:00,75.0,65.0,-100.00,ESE,116,2.0,5.0,70,0.00,,,0.00,121.000000,,2013-07-28 21:52:00,
2013-07-28 18:02:00,75.0,65.0,-100.00,ESE,116,2.0,5.0,70,0.00,,,0.00,121.000000,,2013-07-28 22:02:00,
2013-07-28 18:12:00,75.0,65.0,-100.00,ESE,116,2.0,5.0,70,0.00,,,0.00,121.000000,,2013-07-28 22:12:00,
2013-07-28 18:22:00,75.0,65.0,-100.00,ESE,116,2.0,5.0,70,0.00,,,0.00,121.000000,,2013-07-28 22:22:00,
2013-07-28 18:52:00,72.0,64.0,-100.00,SE,131,2.0,8.0,76,0.00,,,0.00,51.000000,,2013-07-28 22:52:00,
2013-07-28 19:03:00,72.0,64.0,-100.00,SE,131,2.0,8.0,76,0.00,,,0.00,51.000000,,2013-07-28 23:03:00,
2013-07-28 19:12:00,72.0,64.0,-100.00,SE,131,2.0,8.0,76,0.00,,,0.00,51.000000,,2013-07-28 23:12:00,
2013-07-28 19:22:00,72.0,64.0,-100.00,SE,131,2.0,8.0,76,0.00,,,0.00,51.000000,,2013-07-28 23:22:00,
2013-07-28 19:53:00,71.0,63.0,-100.00,East,96,3.0,9.0,76,0.00,,,0.00,51.000000,,2013-07-28 23:53:00,
2013-07-28 20:03:00,71.0,63.0,-100.00,East,96,3.0,9.0,76,0.00,,,0.00,51.000000,,2013-07-29 00:03:00,
2013-07-28 20:12:00,71.0,63.0,-100.00,East,96,3.0,9.0,76,0.00,,,0.00,51.000000,,2013-07-29 00:12:00,
2013-07-28 20:22:00,71.0,63.0,-100.00,East,96,3.0,9.0,76,0.00,,,0.00,51.000000,,2013-07-29 00:22:00,
2013-07-28 20:25:00,67.0,64.0,-100.00,ESE,111,3.0,8.0,91,0.01,,,0.01,7.000000,,2013-07-29 00:25:00,
2013-07-28 20:52:00,67.0,64.0,-100.00,ESE,111,3.0,8.0,91,0.01,,,0.01,7.000000,,2013-07-29 00:52:00,
2013-07-28 21:02:00,67.0,64.0,-100.00,ESE,111,3.0,8.0,91,0.01,,,0.01,7.000000,,2013-07-29 01:02:00,
2013-07-28 21:14:00,67.0,64.0,-100.00,ESE,111,3.0,8.0,91,0.01,,,0.01,7.000000,,2013-07-29 01:14:00,
2013-07-28 21:25:00,66.0,64.0,-100.00,ENE,68,3.0,9.0,94,0.00,,,0.01,0.000000,,2013-07-29 01:25:00,
2013-07-28 22:07:00,66.0,64.0,-100.00,ENE,68,3.0,9.0,94,0.00,,,0.01,0.000000,,2013-07-29 02:07:00,
2013-07-28 22:15:00,66.0,64.0,-100.00,ENE,68,3.0,9.0,94,0.00,,,0.01,0.000000,,2013-07-29 02:15:00,
2013-07-28 22:25:00,66.0,65.0,-100.00,SE,133,3.0,9.0,95,0.00,,,0.01,0.000000,,2013-07-29 02:25:00,
2013-07-28 23:05:00,66.0,65.0,-100.00,SE,133,3.0,9.0,95,0.00,,,0.01,0.000000,,2013-07-29 03:05:00,
2013-07-28 23:17:00,66.0,65.0,-100.00,SE,133,3.0,9.0,95,0.00,,,0.01,0.000000,,2013-07-29 03:17:00,
2013-07-28 23:58:00,66.0,65.0,-100.00,SE,128,2.0,11.0,95,0.00,,,0.01,0.000000,,2013-07-29 03:58:00,